Погода в Порту-Санту

Португалия     33°04′06″N   16°20′32″W
темп.,
°C
ветер,
м/с
пор.,
м/с
влажн.,
%
обл.,
%
осадки,
мм/ч
давл.,
гПа
погр.,
м
8 мая, сб
сб801:00+18ссз44714 0.1 1020784
04:00+18сз34710 0.0 1019746
07:00+18сз44713 0.1 1018829
10:00+18зсз44736 0.0 1019768
13:00+18зсз55733 0.0 1018750
16:00+19з6773100 0.0 1017806
19:00+19з797937 0.0 1016783
22:00+19з812814 0.0 1016583
9 мая, вс
вс901:00+20з8108071 0.0 1016443
04:00+19з8119083 0.5 1014787
07:00+19сз8986100 0.9 1014696
10:00+19ссз89761 0.0 1016851
13:00+19сз897634 0.0 1017863
16:00+19сз78742 0.0 1016880
19:00+19ссз78720 0.0 1017919
22:00+19ссз667524 0.1 1018800
10 мая, пн
пн1001:00+18ссз677512 0.1 1018862
04:00+18ссз77665 0.0 10181099
07:00+18ссз77684 0.0 10191110
10:00+18ссз78665 0.1 10201161
13:00+18ссз78635 0.1 10211186
16:00+18ссз77657 0.0 10211136
19:00+18ссз777110 0.1 1022982
22:00+18с666415 0.1 10231147
11 мая, вт
вт1101:00+18с66685 0.1 10241053
04:00+18с66654 0.0 10241150
07:00+18ссв66684 0.1 10241027
10:00+18св55648 0.0 10251062
13:00+18св55648 0.0 10261092
16:00+18ссв55638 0.0 10251111
19:00+18св55666 0.0 10251049
22:00+18ссв55655 0.0 10261003
12 мая, ср
ср1201:00+18ссв566428 0.0 1026985
04:00+18ссв66655 0.0 1025984
07:00+18ссв666785 0.0 1025942
10:00+18ссв666686 0.0 1026964
13:00+18ссв5668100 0.0 1027878
16:00+19ссв5672100 0.0 1026852
19:00+19ссв6675100 0.0 1026919
22:00+19ссв6673100 0.1 1026967